Wind_Speed
9 8 11 13 13 13 16 19 20 20 19 18 20 20 20 20 20 20 21 21 22 21 20 22 17 17 18 17 16 18 19 21 23 27 31 36 42 42 39 32 36 36 35
12 13 14 15 15 15 16 17 17 17 16 16 17 17 17 16 16 18 18 19 20 20 21 23 19 19 20 20 20 21 22 26 25 27 31 35 38 43 44 35 33 34 31
16 15 15 17 13 14 14 15 16 17 17 16 17 18 18 18 18 18 17 18 20 20 22 24 23 23 25 24 24 24 25 28 29 28 33 35 34 31 34 43 36 35 35
19 16 16 17 17 16 17 17 17 17 18 19 18 19 18 19 18 18 18 19 21 22 24 25 26 27 27 28 27 27 26 27 34 34 37 32 32 33 30 33 41 41 42
21 19 16 15 16 18 17 17 17 18 20 21 22 24 24 23 22 23 22 20 23 24 27 28 26 27 27 29 29 28 25 29 33 33 34 39 38 37 34 32 26 31 36
21 20 19 18 19 18 18 18 19 20 22 23 25 23 22 22 25 27 22 22 24 24 27 31 31 30 28 31 29 30 31 30 33 36 36 37 37 35 34 36 35 34 34
24 24 24 24 24 23 23 22 22 23 24 28 24 25 24 24 33 34 29 28 26 25 25 28 30 31 31 29 27 30 25 35 36 37 42 39 35 34 37 39 34 35 37
26 27 27 27 27 27 26 25 24 24 26 30 30 22 28 20 24 23 21 21 28 29 30 31 31 30 28 28 26 26 36 37 37 44 45 39 38 39 38 33 33 37 38
18 26 29 29 29 29 31 29 28 27 29 31 30 23 25 20 24 22 24 26 28 29 31 30 29 30 29 29 31 34 35 37 42 40 38 45 36 33 32 34 34 36 41
9 18 24 28 29 30 31 35 34 32 31 28 27 23 20 23 24 26 27 29 27 27 27 29 31 32 39 35 32 32 34 37 39 42 44 47 32 32 34 36 38 40 41
4 7 13 21 26 29 30 34 33 31 31 32 30 29 25 25 25 26 27 26 28 28 28 30 32 34 35 28 28 37 39 40 37 43 49 35 35 37 36 39 39 40 39
5 6 10 14 19 22 24 24 23 24 25 31 29 28 29 27 24 24 24 27 29 30 31 33 34 31 36 29 33 44 46 48 43 39 39 42 38 37 40 39 38 39 35
11 12 13 15 18 19 21 23 24 24 24 26 24 23 23 23 24 25 28 29 31 32 35 34 35 38 33 36 38 45 43 45 41 39 41 39 37 38 38 38 39 36 32
14 13 14 18 19 18 18 18 19 20 19 18 18 21 22 25 27 29 31 33 34 35 35 35 37 29 33 36 39 44 38 44 39 39 39 39 39 38 37 36 36 36 36
17 19 18 21 23 22 22 22 21 21 20 20 21 21 24 28 31 32 33 35 36 35 33 29 33 34 36 32 33 39 39 38 38 38 40 39 39 36 35 35 35 37 39
18 20 23 24 27 28 27 26 25 23 23 25 27 29 30 32 33 33 32 34 34 34 34 34 36 39 38 39 39 36 38 39 38 37 38 37 37 38 39 38 39 39 41
23 20 21 25 27 30 30 29 27 28 28 29 31 30 30 31 33 34 32 31 32 34 35 35 37 39 38 37 34 35 34 35 37 37 38 38 38 39 41 43 47 44 43
26 24 21 20 23 27 28 26 24 23 24 25 28 31 31 31 30 31 32 34 35 36 36 34 34 32 31 31 30 33 35 38 37 38 40 41 42 43 43 44 45 46 47
30 28 24 22 24 23 22 22 22 24 27 29 30 29 29 29 31 32 33 33 33 32 31 29 27 27 28 29 31 35 37 38 38 40 42 45 46 47 47 47 49 47 43
24 25 24 24 23 22 22 23 24 26 28 27 27 27 28 29 29 30 31 30 29 26 26 25 25 27 28 31 32 33 37 41 43 46 46 48 50 50 52 53 48 49 45
23 25 25 24 22 22 23 24 25 25 25 25 25 26 27 28 28 28 26 24 25 25 25 26 27 28 30 32 35 35 38 42 45 48 50 52 53 54 53 52 51 46 42
25 27 26 24 24 24 25 25 25 25 25 25 25 26 27 27 26 24 25 25 25 25 26 26 27 29 31 35 37 38 40 43 47 51 54 55 55 54 52 50 47 48 48
27 27 27 25 25 26 26 26 26 26 25 25 26 27 27 26 24 24 24 24 24 25 27 28 30 31 33 36 38 39 42 47 50 52 53 52 50 48 46 42 41 40 43
29 30 29 28 28 28 27 27 27 27 27 28 28 27 25 24 24 24 24 26 25 27 28 30 31 33 35 38 40 44 47 50 52 53 51 48 43 41 39 36 30 30 33
32 32 31 30 29 29 28 28 29 30 31 30 28 26 24 24 24 24 25 26 25 28 29 30 32 34 36 40 44 48 51 53 53 52 49 46 44 40 35 29 24 25 24
34 34 33 32 31 31 31 31 33 34 33 30 29 25 24 24 25 26 25 25 28 29 29 31 33 36 40 43 47 50 52 52 50 47 46 42 40 36 31 23 22 24 23
Wind_Direction
144 160 151 159 161 161 153 151 153 157 168 178 183 188 192 200 209 214 218 222 228 232 237 248 259 264 268 275 278 279 286 290 297 300 305 312 310 314 315 318 316 314 314
197 183 178 180 169 164 161 160 159 163 170 178 193 195 200 208 214 221 223 227 232 239 243 254 263 269 277 277 277 281 286 287 293 298 302 308 308 314 315 314 314 310 309
198 189 185 183 179 173 173 168 168 174 177 180 193 196 201 209 218 228 235 238 242 247 253 258 265 268 271 277 277 278 281 287 290 294 299 303 307 308 306 313 311 306 308
200 200 192 188 184 183 188 186 190 190 194 199 201 209 212 223 231 235 236 242 247 250 256 264 268 272 273 275 277 274 280 285 291 297 299 302 301 305 302 303 308 311 311
201 204 198 195 196 198 198 201 204 207 213 216 217 222 222 227 238 241 245 250 262 264 265 265 269 273 275 275 276 275 278 283 291 297 295 307 303 303 300 298 292 295 301
210 210 212 210 204 207 210 212 217 221 226 230 228 233 238 243 246 245 246 255 262 267 272 272 267 268 272 273 269 271 281 284 288 299 290 300 305 302 298 300 300 294 292
213 214 210 213 214 212 217 222 227 232 237 241 248 241 246 264 261 262 239 251 259 269 280 281 275 269 271 269 264 278 285 288 287 287 289 290 296 299 298 295 292 294 297
223 219 217 217 220 228 231 232 236 243 250 251 240 269 237 269 296 272 261 269 277 276 275 281 272 271 269 263 272 268 288 288 290 284 290 283 304 298 300 298 297 299 297
222 226 222 223 223 229 239 243 243 248 252 266 258 289 241 265 284 268 274 282 277 277 278 279 273 269 268 268 264 282 283 284 288 291 293 295 299 299 297 301 300 297 296
241 219 220 225 229 229 232 249 253 252 256 262 269 266 267 268 272 266 273 278 282 285 287 283 278 275 275 269 278 278 277 289 294 295 295 286 304 302 304 305 300 295 291
285 253 230 225 229 225 233 250 254 254 257 257 255 260 259 264 273 269 274 279 284 287 286 286 279 287 275 289 274 281 276 289 304 311 294 298 306 306 303 301 293 293 292
242 245 243 239 243 247 248 248 247 250 257 266 267 259 256 266 266 270 275 279 284 287 287 288 285 273 278 287 277 295 271 288 304 300 295 301 304 303 302 298 294 291 289
256 261 258 243 236 237 241 246 249 253 255 258 263 259 256 258 266 273 276 280 284 285 284 286 280 288 287 285 293 289 283 284 296 299 298 299 300 299 299 295 292 291 289
248 246 260 252 235 226 223 227 233 239 244 251 253 258 266 269 275 280 282 282 282 282 282 287 280 273 289 294 288 293 286 292 295 294 298 298 296 295 295 291 290 290 293
263 246 246 248 238 225 228 237 243 247 250 255 257 269 274 275 277 277 275 277 278 278 278 271 277 281 284 282 289 285 291 292 295 297 296 295 296 296 294 291 290 287 284
264 252 245 251 242 236 238 243 243 246 250 254 261 267 271 270 273 275 277 280 281 280 278 277 278 279 281 283 296 295 293 296 298 298 297 297 296 296 296 293 290 289 288
252 255 252 251 246 239 239 243 245 249 253 255 259 265 270 273 276 280 282 284 285 286 287 286 285 285 286 288 292 292 295 296 298 299 299 298 298 297 297 295 295 293 289
249 253 256 258 252 243 242 242 245 248 254 261 268 273 276 277 278 281 283 284 284 285 285 287 287 288 288 290 296 297 297 298 300 301 300 300 300 298 295 293 290 290 291
246 251 259 256 247 235 234 241 251 262 269 274 276 277 278 280 283 285 286 286 286 286 286 286 287 291 296 298 297 297 299 300 303 303 303 302 301 300 297 294 291 289 284
242 242 244 234 229 235 246 257 267 274 277 277 278 281 285 287 287 286 285 284 285 285 287 291 294 296 296 297 297 301 304 305 305 305 306 304 303 302 299 295 290 284 283
236 235 226 229 239 251 263 271 274 274 273 275 279 284 285 285 285 285 284 282 284 287 291 295 297 297 299 299 304 305 305 307 306 307 307 306 303 300 298 294 291 287 286
231 227 231 242 252 262 270 270 269 270 272 277 284 285 286 288 286 282 282 282 286 291 294 297 298 299 302 304 305 309 309 309 309 308 307 305 304 302 299 294 290 280 282
230 233 242 251 260 266 267 267 268 270 273 280 284 285 285 283 279 280 284 286 291 294 295 298 301 302 305 304 307 308 310 311 311 310 309 308 306 303 300 296 292 286 269
233 240 248 256 261 262 261 262 266 269 276 282 285 286 283 280 282 284 285 288 291 294 298 301 303 305 307 307 311 313 314 315 314 314 314 312 310 307 304 300 297 295 283
238 244 251 257 261 262 263 266 269 271 276 282 284 284 280 281 280 283 285 287 292 296 299 301 304 307 309 311 314 316 319 319 319 318 318 317 315 313 310 306 292 285 288
246 251 254 260 264 264 265 266 268 270 275 281 282 277 275 276 280 285 285 289 295 298 301 304 307 310 311 314 317 320 321 321 320 318 317 315 312 308 299 292 290 290 287
Height
3108 3109 3109 3111 3113 3114 3116 3119 3122 3126 3130 3132 3135 3138 3140 3143 3145 3147 3149 3151 3154 3156 3157 3158 3158 3158 3157 3157 3156 3155 3154 3154 3153 3151 3148 3143 3139 3141 3137 3134 3131 3127 3124
3109 3110 3110 3112 3114 3116 3118 3121 3123 3127 3129 3133 3135 3137 3139 3141 3144 3146 3147 3150 3151 3152 3154 3154 3154 3154 3153 3153 3151 3151 3149 3148 3148 3147 3144 3141 3138 3125 3124 3129 3124 3121 3120
3110 3111 3112 3114 3115 3116 3119 3121 3123 3126 3129 3131 3134 3136 3138 3140 3142 3143 3146 3147 3148 3149 3150 3150 3148 3148 3148 3147 3147 3146 3145 3142 3142 3142 3139 3136 3133 3130 3122 3112 3116 3115 3112
3111 3111 3112 3114 3116 3117 3119 3121 3123 3125 3128 3130 3132 3134 3135 3138 3139 3140 3142 3142 3143 3145 3145 3144 3144 3144 3143 3142 3142 3140 3140 3138 3134 3133 3131 3130 3127 3124 3121 3114 3105 3101 3100
3110 3110 3111 3113 3115 3117 3118 3121 3123 3125 3127 3128 3130 3132 3134 3135 3136 3136 3136 3138 3139 3140 3139 3138 3138 3139 3138 3136 3136 3134 3133 3132 3130 3126 3123 3120 3118 3116 3113 3110 3108 3100 3094
3108 3109 3110 3112 3113 3115 3117 3119 3121 3122 3124 3125 3126 3129 3130 3132 3133 3132 3131 3132 3134 3135 3134 3133 3133 3133 3131 3130 3129 3127 3127 3124 3122 3119 3116 3114 3111 3108 3103 3099 3097 3093 3091
3105 3106 3108 3109 3110 3112 3114 3116 3118 3119 3120 3120 3123 3126 3127 3127 3127 3118 3119 3125 3127 3128 3128 3126 3125 3125 3124 3122 3121 3121 3119 3117 3115 3111 3109 3106 3103 3099 3097 3093 3089 3085 3082
3100 3102 3105 3107 3108 3109 3111 3113 3114 3116 3116 3114 3116 3119 3122 3122 3118 3112 3111 3118 3120 3120 3121 3120 3119 3117 3116 3115 3114 3112 3112 3110 3108 3105 3100 3097 3093 3089 3086 3083 3080 3076 3073
3096 3098 3101 3104 3106 3106 3105 3108 3110 3112 3112 3111 3111 3102 3114 3116 3115 3114 3113 3114 3115 3114 3113 3112 3111 3109 3108 3108 3106 3105 3104 3101 3098 3095 3092 3088 3083 3081 3078 3075 3071 3067 3063
3092 3093 3096 3100 3101 3102 3103 3101 3104 3105 3106 3107 3106 3107 3109 3110 3109 3109 3108 3108 3107 3106 3105 3105 3104 3103 3101 3099 3098 3096 3095 3092 3089 3086 3083 3078 3074 3072 3070 3065 3062 3058 3053
3089 3089 3090 3092 3094 3096 3096 3095 3097 3098 3098 3102 3103 3103 3104 3104 3104 3104 3104 3103 3101 3100 3100 3099 3097 3095 3092 3091 3091 3089 3085 3083 3080 3077 3073 3069 3067 3063 3060 3056 3052 3048 3044
3090 3089 3088 3088 3089 3090 3091 3091 3093 3094 3094 3093 3097 3098 3098 3099 3100 3100 3099 3098 3096 3095 3093 3092 3090 3088 3086 3083 3084 3081 3077 3075 3071 3067 3064 3061 3056 3053 3050 3046 3043 3040 3035
3087 3086 3086 3085 3085 3086 3086 3087 3088 3090 3091 3091 3091 3092 3094 3095 3095 3094 3093 3092 3091 3088 3087 3085 3083 3082 3079 3078 3075 3071 3067 3065 3061 3058 3055 3052 3048 3044 3041 3037 3033 3030 3026
3083 3083 3082 3082 3081 3082 3083 3084 3085 3086 3087 3087 3088 3088 3089 3090 3089 3089 3087 3086 3084 3083 3080 3079 3077 3073 3072 3070 3067 3064 3060 3057 3052 3049 3046 3042 3039 3036 3033 3029 3025 3022 3017
3077 3078 3078 3078 3078 3079 3080 3080 3081 3082 3083 3084 3083 3083 3084 3083 3083 3082 3080 3079 3076 3074 3073 3071 3068 3066 3064 3059 3058 3054 3050 3047 3044 3041 3037 3033 3029 3026 3024 3020 3017 3013 3009
3072 3072 3072 3072 3072 3074 3075 3076 3077 3078 3079 3078 3078 3078 3077 3076 3075 3073 3071 3069 3067 3065 3063 3060 3058 3056 3054 3051 3048 3044 3041 3038 3034 3031 3027 3024 3021 3017 3013 3011 3008 3004 2999
3065 3065 3065 3066 3066 3068 3069 3070 3072 3072 3072 3071 3071 3070 3069 3068 3066 3064 3062 3060 3058 3056 3053 3051 3049 3047 3044 3042 3040 3036 3031 3028 3026 3022 3018 3014 3011 3007 3003 2998 2992 2990 2987
3058 3059 3060 3060 3061 3062 3063 3064 3065 3065 3065 3065 3064 3063 3061 3060 3058 3056 3054 3052 3050 3048 3046 3043 3040 3038 3036 3034 3030 3026 3022 3019 3016 3012 3008 3004 3001 2997 2992 2987 2982 2978 2973
3050 3051 3053 3054 3055 3056 3058 3059 3059 3059 3059 3058 3057 3055 3054 3053 3051 3049 3047 3045 3042 3040 3037 3034 3032 3030 3027 3024 3021 3017 3013 3010 3006 3002 2998 2994 2990 2986 2981 2974 2968 2965 2962
3042 3044 3046 3048 3050 3051 3052 3052 3052 3052 3051 3050 3049 3048 3047 3045 3043 3040 3037 3035 3032 3031 3029 3026 3024 3021 3019 3014 3011 3008 3003 2999 2995 2992 2987 2982 2977 2971 2965 2958 2954 2949 2948
3037 3039 3041 3043 3045 3046 3046 3046 3046 3045 3045 3043 3042 3040 3038 3036 3034 3032 3029 3027 3025 3023 3021 3019 3016 3013 3009 3005 3001 2999 2994 2990 2984 2979 2974 2969 2963 2956 2950 2945 2939 2935 2935
3033 3035 3037 3038 3039 3039 3039 3039 3038 3038 3037 3036 3034 3032 3030 3028 3025 3024 3022 3020 3018 3016 3013 3010 3008 3005 3002 2996 2992 2990 2985 2980 2973 2968 2961 2954 2948 2941 2935 2929 2925 2923 2922
3028 3030 3032 3032 3033 3032 3032 3031 3031 3030 3029 3028 3026 3024 3022 3020 3018 3016 3014 3011 3010 3008 3006 3003 3000 2997 2993 2989 2985 2981 2976 2970 2962 2955 2948 2940 2933 2926 2920 2915 2911 2907 2907
3022 3024 3025 3025 3025 3024 3024 3023 3023 3022 3021 3020 3018 3015 3012 3011 3009 3007 3005 3003 3002 3000 2998 2996 2993 2989 2985 2979 2975 2970 2964 2957 2950 2941 2934 2926 2920 2914 2907 2903 2899 2896 2894
3016 3016 3017 3017 3017 3016 3016 3016 3015 3014 3012 3010 3007 3005 3003 3002 3001 3000 2998 2996 2995 2992 2989 2987 2983 2979 2975 2970 2964 2958 2950 2942 2934 2926 2919 2912 2906 2902 2897 2894 2891 2889 2887
3009 3009 3009 3009 3009 3008 3008 3007 3005 3003 3001 3000 2999 2997 2996 2994 2993 2991 2990 2989 2986 2983 2981 2978 2974 2969 2964 2959 2952 2945 2938 2930 2922 2915 2909 2903 2898 2893 2889 2887 2884 2882 2881